This is the latest recevied weather packets stored in our database for station/object WA6TJQ. If no packets are shown the sender has not sent any weather packets the latest 10 day(s).
| Time | Temp. | Humidity | Pressure | Rain* | Wind** | Luminosity | Snow |
|---|---|---|---|---|---|---|---|
| 1778105376 | 17.78° C | 36% | 1012.6 hPa | 0 mm | - | - | - |
| 1778105076 | 18.33° C | 39% | 1012.7 hPa | 0 mm | - | - | - |
| 1778104776 | 18.33° C | 36% | 1012.7 hPa | 0 mm | - | - | - |
| 1778104476 | 18.33° C | 39% | 1012.7 hPa | 0 mm | - | - | - |
| 1778104176 | 18.33° C | 36% | 1012.7 hPa | 0 mm | - | - | - |
| 1778103876 | 18.33° C | 41% | 1012.7 hPa | 0 mm | - | - | - |
| 1778103576 | 18.33° C | 41% | 1012.8 hPa | 0 mm | - | - | - |
| 1778103276 | 17.78° C | 40% | 1012.9 hPa | 0 mm | - | - | - |
| 1778102976 | 17.78° C | 39% | 1013 hPa | 0 mm | - | - | - |
| 1778102676 | 17.78° C | 42% | 1012.9 hPa | 0 mm | - | - | - |
| 1778102376 | 17.78° C | 40% | 1013 hPa | 0 mm | - | - | - |
| 1778102076 | 17.78° C | 39% | 1013 hPa | 0 mm | - | - | - |
| 1778101776 | 17.78° C | 42% | 1013 hPa | 0 mm | - | - | - |
| 1778101476 | 17.22° C | 41% | 1013 hPa | 0 mm | - | - | - |
| 1778101176 | 17.22° C | 40% | 1013.2 hPa | 0 mm | - | - | - |
| 1778100876 | 17.22° C | 44% | 1013.1 hPa | 0 mm | - | - | - |
| 1778100576 | 17.22° C | 44% | 1013.1 hPa | 0 mm | - | - | - |
| 1778100276 | 17.22° C | 43% | 1012.9 hPa | 0 mm | - | - | - |
| 1778099976 | 16.67° C | 43% | 1013 hPa | 0 mm | - | - | - |
| 1778099676 | 16.67° C | 44% | 1013.1 hPa | 0 mm | - | - | - |
| 1778099376 | 16.67° C | 46% | 1013 hPa | 0 mm | - | - | - |
| 1778099076 | 16.67° C | 45% | 1013.1 hPa | 0 mm | - | - | - |
| 1778098776 | 16.67° C | 46% | 1013.1 hPa | 0 mm | - | - | - |
| 1778098476 | 16.67° C | 48% | 1013.1 hPa | 0 mm | - | - | - |
| 1778098176 | 16.11° C | 48% | 1013.2 hPa | 0 mm | - | - | - |
* Rain latest hour (hover to see other rain measurements)
** Current wind speed in m/s (hover to see current wind gust speed)